GW4606 Weather Reports


time (UTC)temp
F
wind
direction
speed
knots
gust
knots
rain 1hr
in
rain 24hr
in
rain mn
in
humidity
%
barometer
mb
20260507032716 52 58 0.9 2.6 0.00 0.57 0.57 71 1015.7
20260507032211 52 311 0.9 2.6 0.00 0.57 0.57 71 1015.8
20260507031709 52 295 0.0 3.5 0.00 0.57 0.57 70 1015.6
20260507031205 52 137 1.7 2.6 0.00 0.57 0.57 69 1015.5
20260507030702 52 352 0.9 1.7 0.00 0.57 0.57 71 1015.8
20260507030200 52 352 0.9 1.7 0.00 0.57 0.57 70 1015.7
20260507025657 52 284 1.7 1.7 0.00 0.57 0.57 70 1015.6
20260507025154 52 53 1.7 3.5 0.00 0.57 0.57 70 1015.6
20260507024652 53 278 1.7 1.7 0.00 0.57 0.57 72 1015.6
20260507024149 53 109 0.0 2.6 0.00 0.57 0.57 71 1015.7
20260507023644 53 282 0.9 3.5 0.00 0.57 0.57 71 1015.6
20260507023142 53 250 0.0 2.6 0.00 0.57 0.57 74 1015.5
20260507022639 53 6 0.9 2.6 0.00 0.57 0.57 74 1015.4
20260507022134 53 58 0.0 3.5 0.00 0.57 0.57 74 1015.2
20260507021630 53 255 0.0 0.9 0.00 0.57 0.57 76 1015.2
20260507021125 53 255 0.0 1.7 0.00 0.57 0.57 76 1015.2
20260507020624 53 255 0.9 2.6 0.00 0.57 0.57 75 1014.9
20260507020120 53 255 0.0 2.6 0.00 0.57 0.57 78 1015.1
20260507015619 53 255 0.0 0.9 0.00 0.57 0.57 78 1014.8
20260507015116 53 255 0.9 1.7 0.00 0.57 0.57 77 1015.2
20260507014612 53 255 0.9 2.6 0.00 0.57 0.57 78 1015.1
20260507014108 54 32 0.9 3.5 0.00 0.57 0.57 80 1014.8
20260507013605 53 290 1.7 2.6 0.00 0.57 0.57 80 1014.8
20260507013102 54 316 0.0 0.0 0.00 0.57 0.57 85 1014.9
20260507012559 54 316 0.0 0.0 0.07 0.57 0.57 84 1014.6
20260507012055 54 316 0.0 0.0 0.00 0.56 0.56 86 1014.8
20260507011553 54 316 0.0 0.0 0.00 0.56 0.56 82 1014.4
20260507011049 54 316 0.0 0.0 0.00 0.56 0.56 82 1014.3
20260507010544 54 316 0.0 0.0 0.00 0.56 0.56 84 1014.3
20260507010041 54 316 0.0 0.0 0.00 0.56 0.56 83 1014.0
20260507005539 54 316 0.0 0.0 0.00 0.56 0.56 83 1013.9
20260507005034 54 316 0.0 0.0 0.00 0.56 0.56 84 1014.1
20260507004531 54 316 0.0 0.0 0.00 0.56 0.56 81 1014.0
20260507004024 54 316 0.0 0.0 0.00 0.56 0.56 82 1014.2
20260507003519 55 316 0.0 0.0 0.00 0.56 0.56 82 1013.8
20260507003014 55 316 0.0 0.0 0.00 0.56 0.56 81 1013.9
20260507002511 55 316 0.0 0.0 0.00 0.56 0.56 80 1014.0
20260507002007 55 316 0.0 0.0 0.00 0.56 0.56 81 1013.8
20260507001503 55 316 0.0 0.0 0.00 0.56 0.56 81 1013.6
20260507001001 55 316 0.0 0.0 0.00 0.56 0.56 81 1013.6
20260507000457 55 316 0.0 0.0 0.00 0.56 0.56 80 1013.6
20260506235952 55 316 0.0 0.0 0.00 0.56 0.56 80 1013.8
20260506235450 55 316 0.0 0.0 0.00 0.56 0.56 80 1013.5
20260506234946 56 316 0.0 0.0 0.00 0.56 0.56 79 1013.6
20260506234443 56 316 0.0 0.0 0.00 0.56 0.56 80 1013.6
20260506233941 56 316 0.0 0.0 0.05 0.56 0.56 80 1013.4
20260506233437 56 316 0.0 0.0 0.05 0.56 0.56 81 1013.3
20260506232934 56 316 0.0 0.0 0.00 0.55 0.55 79 1013.4
20260506232430 56 316 0.0 0.0 0.00 0.55 0.55 79 1013.8
20260506231926 56 316 0.0 0.0 0.00 0.55 0.55 79 1014.0
20260506231423 57 316 0.0 0.0 0.00 0.55 0.55 80 1014.1
20260506230920 57 316 0.0 0.0 0.00 0.55 0.55 79 1014.1
20260506230417 57 316 0.0 0.0 0.00 0.55 0.55 81 1013.6
20260506225913 58 316 0.0 0.0 0.00 0.55 0.55 81 1013.4
20260506225411 58 316 0.0 0.0 0.00 0.55 0.55 79 1013.6
20260506224907 58 316 0.0 0.0 0.00 0.55 0.55 76 1013.6
20260506224405 58 316 0.0 0.0 0.00 0.55 0.55 75 1013.6
20260506223900 58 316 0.0 0.0 0.00 0.55 0.55 78 1013.6
20260506223356 58 316 0.0 0.0 0.00 0.55 0.55 78 1013.6
20260506222853 58 316 0.0 0.0 0.07 0.55 0.55 75 1013.5
20260506222349 58 316 0.0 0.0 0.07 0.55 0.55 74 1013.6
20260506221847 58 316 0.0 0.0 0.00 0.54 0.54 77 1013.5
20260506221344 59 317 0.0 0.0 0.00 0.54 0.54 73 1013.6
20260506220842 60 316 0.0 0.0 0.00 0.54 0.54 77 1013.3
20260506220337 59 316 0.0 0.0 0.00 0.54 0.54 75 1013.2
20260506215835 59 317 0.0 0.0 0.00 0.54 0.54 77 1013.3
20260506215330 58 316 0.0 0.0 0.00 0.54 0.54 75 1013.1
20260506214826 58 316 0.0 0.0 0.00 0.54 0.54 76 1013.0
20260506214323 58 316 0.0 0.0 0.00 0.54 0.54 76 1013.0
20260506213821 58 317 0.0 0.0 0.00 0.54 0.54 77 1013.0
20260506213318 59 316 0.0 0.0 0.05 0.54 0.54 77 1013.1
20260506212815 59 316 0.0 0.0 0.00 0.53 0.53 76 1013.2
20260506212312 59 316 0.0 0.0 0.00 0.53 0.53 78 1013.2
20260506211806 59 316 0.0 0.9 0.00 0.53 0.53 76 1013.1
20260506211303 58 316 0.0 0.0 0.00 0.53 0.53 76 1013.3
20260506210800 59 317 0.0 0.0 0.00 0.53 0.53 77 1013.2
20260506210256 59 316 0.0 2.6 0.00 0.53 0.53 80 1012.9
20260506205753 58 316 0.9 2.6 0.00 0.53 0.53 75 1012.9
20260506205249 58 316 0.0 2.6 0.07 0.53 0.53 76 1013.0
20260506204746 59 337 0.0 0.9 0.07 0.53 0.53 78 1013.0
20260506204244 59 337 0.0 1.7 0.00 0.52 0.52 80 1012.9
20260506203741 59 337 0.0 1.7 0.00 0.52 0.52 77 1012.8
20260506203238 58 53 0.0 1.7 0.00 0.52 0.52 79 1012.8
20260506202736 58 54 1.7 5.2 0.00 0.52 0.52 77 1012.8
20260506202232 60 304 4.3 7.0 0.00 0.52 0.52 76 1012.7
20260506201729 60 288 0.9 1.7 0.00 0.52 0.52 77 1012.7
20260506201226 60 288 0.9 2.6 0.05 0.52 0.52 78 1012.5
20260506200723 59 11 0.0 0.9 0.00 0.51 0.51 80 1012.4
20260506200219 59 11 0.9 2.6 0.00 0.51 0.51 79 1012.7
20260506195716 59 11 1.7 2.6 0.00 0.51 0.51 78 1012.6
20260506195213 59 278 2.6 5.2 0.00 0.51 0.51 77 1012.5
20260506194710 61 283 1.7 2.6 0.00 0.51 0.51 76 1012.6
20260506194206 60 283 0.9 1.7 0.07 0.51 0.51 76 1012.7
20260506193659 59 283 0.0 0.0 0.07 0.51 0.51 82 1012.6
20260506193155 58 283 0.9 2.6 0.00 0.50 0.50 79 1012.7
20260506192651 58 278 1.7 3.5 0.00 0.50 0.50 80 1012.8
20260506192147 58 331 0.9 3.5 0.00 0.50 0.50 82 1012.7
20260506191640 58 331 2.6 3.5 0.05 0.50 0.50 81 1012.8
20260506191136 58 331 1.7 3.5 0.05 0.50 0.50 81 1012.6
20260506190633 57 285 0.9 3.5 0.00 0.49 0.49 83 1012.9
20260506190129 58 260 0.9 3.5 0.00 0.49 0.49 83 1012.8
20260506185627 57 260 0.0 1.7 0.00 0.49 0.49 85 1012.8
20260506185123 58 260 1.7 2.6 0.00 0.49 0.49 86 1012.8
20260506184621 57 260 0.0 2.6 0.07 0.49 0.49 86 1012.9
20260506184118 58 260 3.5 5.2 0.07 0.49 0.49 82 1012.8
20260506183614 58 260 0.0 1.7 0.00 0.48 0.48 85 1012.9
20260506183110 57 260 0.0 2.6 0.00 0.48 0.48 85 1012.7
20260506182608 57 260 0.0 0.9 0.00 0.48 0.48 83 1012.8
20260506182105 56 260 0.0 1.7 0.07 0.48 0.48 85 1012.8
20260506181603 56 260 1.7 2.6 0.07 0.48 0.48 85 1012.8
20260506181059 56 260 0.0 1.7 0.00 0.47 0.47 85 1012.9
20260506180556 57 260 0.9 1.7 0.00 0.47 0.47 85 1013.0
20260506180052 56 260 1.7 1.7 0.05 0.47 0.47 87 1013.0
20260506175548 55 260 0.9 3.5 0.05 0.47 0.47 87 1013.1
20260506175045 56 299 0.0 2.6 0.00 0.46 0.46 88 1013.2
20260506174544 56 40 2.6 3.5 0.00 0.46 0.46 85 1013.2
20260506174039 56 40 0.9 1.7 0.07 0.46 0.46 89 1013.2
20260506173537 56 40 0.0 2.6 0.07 0.46 0.46 88 1013.1
20260506173034 56 40 0.0 1.7 0.00 0.45 0.45 88 1013.1
20260506172531 56 329 0.0 1.7 0.00 0.45 0.45 89 1013.1
20260506172027 55 288 1.7 5.2 0.05 0.45 0.45 87 1012.9
20260506171525 56 262 2.6 3.5 0.05 0.45 0.45 90 1013.2
20260506171017 54 262 0.9 2.6 0.00 0.44 0.44 92 1013.0
20260506170514 53 262 1.7 2.6 0.00 0.44 0.44 92 1013.0
20260506170006 53 343 1.7 2.6 0.00 0.44 0.44 94 1013.1
20260506165504 53 270 1.7 5.2 0.07 0.44 0.44 94 1013.2
20260506165000 52 283 0.9 3.5 0.00 0.43 0.43 95 1013.2
20260506164457 52 351 0.9 2.6 0.00 0.43 0.43 95 1013.1
20260506163954 52 351 2.6 5.2 0.00 0.43 0.43 96 1013.3
20260506163449 51 289 1.7 5.2 0.05 0.43 0.43 96 1013.1
20260506162944 51 21 0.9 1.7 0.05 0.43 0.43 97 1013.3
20260506162442 50 291 2.6 7.0 0.00 0.42 0.42 97 1013.1
20260506161934 50 271 1.7 2.6 0.00 0.42 0.42 98 1013.3
20260506161432 50 244 1.7 3.5 0.07 0.42 0.42 98 1013.2
20260506160929 50 276 2.6 6.1 0.07 0.42 0.42 97 1013.2
20260506160426 50 247 1.7 7.0 0.00 0.41 0.41 98 1013.1
20260506155923 50 296 7.0 8.7 0.00 0.41 0.41 98 1012.9
20260506155420 50 253 3.5 6.1 0.07 0.40 0.40 99 1012.6
20260506153542 50 253 3.5 6.1 0.07 0.40 0.40 99 1012.6
20260506153039 50 9 0.0 2.6 0.07 0.40 0.40 99 1012.1
20260506152536 50 9 0.9 1.7 0.00 0.39 0.39 99 1012.3
20260506152034 50 321 0.0 0.9 0.00 0.39 0.39 99 1012.2
20260506151532 49 326 1.7 2.6 0.05 0.39 0.39 99 1012.0
20260506151029 49 314 0.9 2.6 0.05 0.39 0.39 99 1012.1
20260506150525 50 51 0.0 0.0 0.00 0.38 0.38 99 1011.9
20260506150022 49 51 0.0 2.6 0.07 0.38 0.38 99 1011.7
20260506145519 50 293 2.6 5.2 0.07 0.38 0.38 99 1011.6
20260506145017 49 293 1.7 2.6 0.00 0.37 0.37 99 1011.6
20260506144513 49 39 0.9 0.9 0.00 0.37 0.37 99 1011.2
20260506144011 49 43 3.5 5.2 0.05 0.37 0.37 99 1011.5
20260506143508 49 43 3.5 5.2 0.05 0.37 0.37 99 1011.5
20260506143006 49 37 1.7 6.1 0.00 0.36 0.36 99 1011.4
20260506142503 49 297 1.7 5.2 0.07 0.36 0.36 99 1011.4
20260506142001 49 252 1.7 7.0 0.07 0.36 0.36 99 1011.4
20260506141459 49 342 3.5 8.7 0.00 0.35 0.35 99 1011.3
20260506140958 49 233 3.5 6.1 0.00 0.35 0.35 99 1011.1
20260506140454 49 221 1.7 5.2 0.07 0.35 0.35 99 1010.9
20260506135951 49 341 3.5 7.0 0.07 0.35 0.35 99 1010.7
20260506135448 49 342 2.6 7.8 0.00 0.34 0.34 99 1010.1
20260506134944 50 39 3.5 7.0 0.05 0.34 0.34 99 1010.4
20260506134441 50 296 3.5 5.2 0.05 0.34 0.34 99 1010.1
20260506133937 50 336 3.5 6.1 0.00 0.33 0.33 99 1010.3
20260506133434 51 337 3.5 11.3 0.07 0.33 0.33 99 1009.8
20260506132932 52 295 2.6 6.1 0.07 0.33 0.33 99 1009.6
20260506132429 54 324 1.7 7.0 0.00 0.32 0.32 99 1009.6
20260506131926 58 288 3.5 7.0 0.05 0.32 0.32 99 1009.4
20260506131422 58 267 2.6 2.6 0.05 0.32 0.32 99 1008.9
20260506130920 58 237 1.7 3.5 0.00 0.31 0.31 99 1008.8
20260506130416 58 253 3.5 3.5 0.07 0.31 0.31 99 1008.8
20260506125914 57 240 2.6 3.5 0.07 0.31 0.31 99 1008.8
20260506125412 57 225 3.5 6.1 0.00 0.30 0.30 99 1008.7
20260506124910 57 245 2.6 6.1 0.05 0.30 0.30 99 1008.8
20260506124407 57 238 2.6 5.2 0.05 0.30 0.30 99 1008.6
20260506123905 57 217 2.6 5.2 0.00 0.29 0.29 99 1008.8
20260506123403 57 121 0.9 2.6 0.07 0.29 0.29 99 1008.7
20260506122900 57 238 2.6 3.5 0.07 0.29 0.29 99 1008.6
20260506122356 57 240 1.7 5.2 0.00 0.28 0.28 99 1008.7
20260506121854 57 209 0.9 2.6 0.05 0.28 0.28 99 1008.6
20260506121351 57 201 2.6 3.5 0.05 0.28 0.28 99 1008.6
20260506120848 57 194 0.9 3.5 0.07 0.27 0.27 99 1008.5
20260506120346 57 141 0.9 1.7 0.07 0.27 0.27 99 1008.4
20260506115843 57 140 1.7 2.6 0.00 0.26 0.26 99 1008.2
20260506115341 57 253 0.9 1.7 0.05 0.26 0.26 99 1008.3
20260506114839 57 221 1.7 2.6 0.05 0.26 0.26 99 1008.8
20260506114336 57 107 0.0 0.9 0.00 0.25 0.25 99 1008.5
20260506113835 57 230 2.6 5.2 0.07 0.25 0.25 99 1008.4
20260506113332 57 171 0.0 2.6 0.07 0.25 0.25 99 1008.4
20260506112828 57 222 0.9 1.7 0.05 0.24 0.24 99 1008.4
20260506112326 57 282 0.9 2.6 0.05 0.24 0.24 99 1008.2
20260506111823 56 234 1.7 5.2 0.00 0.23 0.23 99 1008.3
20260506111321 56 171 0.9 3.5 0.07 0.23 0.23 99 1008.3
20260506110819 56 118 0.9 3.5 0.07 0.23 0.23 99 1008.1
20260506110315 56 167 0.0 0.0 0.07 0.22 0.22 99 1008.2
20260506105812 56 275 1.7 5.2 0.07 0.22 0.22 99 1008.2
20260506105309 56 267 1.7 2.6 0.00 0.21 0.21 99 1008.2
20260506104806 56 130 2.6 2.6 0.05 0.21 0.21 99 1008.2
20260506104304 56 167 4.3 5.2 0.05 0.21 0.21 99 1008.0
20260506103802 56 208 1.7 2.6 0.07 0.20 0.20 99 1008.0
20260506103259 56 180 1.7 5.2 0.07 0.20 0.20 99 1008.0
20260506102756 56 135 1.7 2.6 0.00 0.19 0.19 99 1008.1
20260506102254 56 153 2.6 3.5 0.05 0.19 0.19 99 1007.9
20260506101751 56 138 3.5 5.2 0.00 0.18 0.18 99 1007.9
20260506101247 56 165 2.6 5.2 0.07 0.18 0.18 99 1007.7
20260506100745 56 129 2.6 3.5 0.07 0.18 0.18 99 1008.0
20260506100243 56 286 0.0 3.5 0.05 0.17 0.17 99 1008.0
20260506095741 56 150 1.7 6.1 0.05 0.17 0.17 99 1008.2
20260506095238 56 145 2.6 3.5 0.07 0.16 0.16 99 1008.2
20260506094734 56 144 1.7 2.6 0.07 0.16 0.16 99 1008.3
20260506094233 56 236 0.0 1.7 0.05 0.15 0.15 99 1008.4
20260506093731 56 154 2.6 3.5 0.05 0.15 0.15 99 1008.2
20260506093227 56 267 0.0 1.7 0.00 0.14 0.14 99 1008.4
20260506092726 56 267 0.9 1.7 0.07 0.14 0.14 99 1008.4
20260506092223 56 267 0.0 0.9 0.00 0.13 0.13 99 1008.4
20260506091720 56 267 0.9 1.7 0.05 0.13 0.13 99 1008.4
20260506091218 56 267 1.7 1.7 0.05 0.13 0.13 99 1008.2
20260506090715 56 267 0.0 0.9 0.07 0.12 0.12 99 1008.1
20260506090212 56 295 0.9 1.7 0.07 0.12 0.12 99 1008.4
20260506085709 56 126 0.0 0.9 0.05 0.11 0.11 99 1008.5
20260506085205 56 214 0.0 1.7 0.05 0.11 0.11 99 1008.5
20260506084702 56 241 0.0 0.0 0.07 0.10 0.10 99 1008.6
20260506084158 56 241 0.0 1.7 0.07 0.10 0.10 99 1008.5
20260506083655 56 259 0.0 2.6 0.07 0.09 0.09 99 1008.5
20260506083153 56 259 1.7 2.6 0.07 0.09 0.09 98 1008.5
20260506082650 56 165 0.9 2.6 0.05 0.08 0.08 98 1008.5
20260506082145 56 227 0.0 2.6 0.05 0.08 0.08 98 1008.4
20260506081644 56 243 0.9 2.6 0.07 0.07 0.07 98 1008.4
20260506081141 57 185 0.0 3.5 0.07 0.07 0.07 98 1008.3
20260506080639 57 170 0.9 1.7 0.05 0.06 0.06 98 1008.7
20260506080135 57 223 0.9 2.6 0.05 0.06 0.06 97 1008.8
20260506073119 58 255 1.7 5.2 0.07 0.03 0.03 94 1009.1
20260506072615 58 238 1.7 2.6 0.00 0.02 0.02 93 1009.3
20260506072114 58 243 1.7 3.5 0.00 0.02 0.02 91 1008.8
20260506071611 59 235 1.7 5.2 0.05 0.02 0.02 90 1008.5
20260506071108 59 232 4.3 6.1 0.05 0.02 0.02 89 1008.5
20260506070605 59 225 2.6 8.7 0.00 0.01 0.01 88 1008.4
20260506062039 59 178 0.0 0.0 0.00 0.01 0.01 84 1008.1
20260506061535 58 178 0.0 0.0 0.00 0.01 0.01 87 1008.1
20260506061033 58 178 0.0 0.0 0.00 0.01 0.01 89 1008.1
20260506060532 58 178 0.0 0.0 0.00 0.01 0.01 88 1008.2
20260506051000 60 236 0.0 1.7 0.07 0.01 0.01 82 1009.2
20260506050458 61 236 0.0 0.0 0.00 0.00 0.00 79 1009.6
20260506044948 62 236 0.0 0.0 0.00 0.00 0.00 73 1009.8
20260506044446 62 236 0.0 0.9 0.00 0.00 0.00 72 1009.6
20260506043943 63 236 0.0 0.0 0.00 0.00 0.00 71 1009.8
20260506043440 63 231 0.9 2.6 0.00 0.00 0.00 70 1009.7
20260506042938 63 241 0.9 2.6 0.00 0.00 0.00 70 1009.7
20260506042437 63 231 0.9 1.7 0.00 0.00 0.00 69 1009.5
20260506041935 63 247 0.9 2.6 0.00 0.00 0.00 70 1009.5
20260506041432 63 253 1.7 1.7 0.00 0.00 0.00 70 1009.6
20260506040929 62 154 0.0 0.9 0.00 0.00 0.00 71 1009.4
20260506040427 62 154 0.0 0.0 0.00 0.00 0.00 71 1009.4
20260506035923 62 154 0.0 0.0 0.00 0.00 0.00 71 1009.5
20260506035421 62 154 0.0 0.0 0.00 0.00 0.00 71 1009.6
20260506034917 62 154 0.0 0.0 0.00 0.00 0.00 72 1009.5
20260506034414 62 154 0.0 0.0 0.00 0.00 0.00 72 1009.4
20260506033911 62 154 0.0 0.0 0.00 0.00 0.00 72 1009.5
20260506033409 62 154 0.0 0.0 0.00 0.00 0.00 73 1009.4
20260506032905 63 154 0.0 0.9 0.00 0.00 0.00 72 1009.5